Cloud_Cover
5 2 10 10 12 87 67 8 60 79 100 100 100 100 91 100 100 100 94 100 100 100 100 100 100 100 100 100 100 100 100 100 100 100 100 100 17 5 3 0 1 7 0
5 5 39 99 63 100 100 79 61 90 100 100 100 100 100 100 100 88 100 100 79 100 100 100 100 100 100 100 100 100 100 100 100 100 100 100 100 40 5 1 0 0 5
4 4 5 11 19 100 100 100 10 100 56 24 85 100 100 100 19 93 88 100 90 100 100 100 100 100 100 100 100 100 100 100 100 100 100 100 100 100 32 2 4 0 0
0 5 4 20 5 5 6 74 70 96 100 57 6 100 100 94 100 100 100 100 100 100 100 100 100 100 100 100 100 100 100 100 100 100 100 100 100 100 38 5 2 0 0
49 3 3 5 5 9 3 6 6 14 99 59 71 100 86 61 100 100 100 100 100 97 100 100 100 100 100 100 100 100 100 100 100 100 100 100 100 100 100 72 5 3 0
47 68 0 0 5 2 6 5 5 7 100 77 75 100 100 83 100 85 100 100 100 100 100 100 100 100 100 100 100 100 100 100 100 100 100 100 100 100 100 84 36 0 0
16 0 0 0 0 0 0 2 5 6 14 87 100 100 100 100 65 99 71 100 100 100 100 100 100 100 87 100 83 100 100 100 100 100 100 100 100 100 100 100 62 3 0
14 1 0 0 0 0 0 0 5 36 12 14 46 6 30 84 72 100 100 100 100 100 100 100 100 100 100 94 100 86 100 100 100 100 100 100 100 100 100 100 100 31 1
50 9 0 0 0 0 1 0 5 5 5 66 90 71 30 79 26 31 99 100 100 100 100 100 100 94 100 100 100 100 100 100 100 100 100 100 100 100 100 100 100 100 9
0 0 0 0 0 0 0 5 2 42 70 56 55 43 43 14 5 40 12 11 16 68 100 100 100 70 100 100 100 100 100 100 100 100 100 100 100 100 100 100 100 100 100
0 5 3 0 0 0 0 0 0 2 6 13 12 9 19 31 40 52 76 8 8 65 21 100 90 62 100 100 100 100 100 100 100 100 100 100 100 100 100 100 100 100 100
2 5 5 4 0 0 0 0 0 3 28 84 100 60 44 43 20 75 98 49 14 8 5 52 83 75 100 100 100 100 100 100 100 100 100 100 100 100 100 100 100 100 100
4 5 5 0 0 0 0 2 67 22 98 100 100 86 98 100 99 100 100 99 91 0 10 25 86 100 100 100 100 100 100 100 100 100 100 100 100 100 100 100 100 100 100
8 5 5 9 5 2 0 0 8 25 15 100 100 76 98 92 100 48 100 100 80 54 2 5 83 100 100 85 99 98 100 100 100 100 100 98 100 100 100 100 100 100 100
0 3 8 49 55 23 52 72 15 27 7 98 100 98 99 100 61 35 34 97 36 49 99 5 0 3 18 99 100 99 100 100 100 100 100 100 100 100 100 100 100 100 100
0 0 0 0 0 1 2 1 56 83 60 56 90 82 10 56 53 25 36 20 13 13 71 100 55 0 0 18 62 78 88 100 100 100 100 100 100 100 100 84 100 100 100
0 1 10 1 0 0 0 0 1 29 43 96 100 100 100 76 10 12 31 28 13 14 27 5 62 82 22 5 0 13 11 100 100 100 100 100 100 100 100 100 100 100 100
100 56 72 39 6 60 34 13 0 10 43 21 8 10 7 3 43 58 22 28 51 37 26 41 97 100 98 86 67 5 0 70 94 100 100 100 100 100 100 100 100 100 100
100 82 5 62 13 71 63 5 0 0 13 27 0 2 5 0 0 5 22 53 31 26 57 68 98 100 100 100 100 99 26 6 20 100 100 100 100 100 100 100 100 100 100
16 5 6 90 29 25 18 8 3 0 0 2 14 26 21 31 41 40 58 35 47 100 72 48 53 94 99 100 100 100 100 69 42 96 100 100 100 100 100 100 100 100 100
48 94 52 11 27 7 20 98 8 4 0 0 0 0 0 1 2 17 37 13 53 76 76 100 100 86 30 29 20 71 100 100 100 99 89 100 100 100 100 100 100 100 100
89 40 98 100 100 100 6 24 70 100 100 15 37 49 8 3 0 0 4 5 26 79 100 100 68 38 16 78 70 5 17 99 100 100 100 100 46 68 100 100 100 100 100
100 100 100 96 100 100 8 7 5 5 24 98 85 64 84 60 1 5 12 2 0 2 53 86 97 46 13 6 3 3 8 17 22 80 98 91 99 48 75 100 100 100 100
100 100 100 98 100 100 67 5 43 91 5 0 3 0 15 22 3 2 21 55 48 0 0 2 61 45 58 71 100 80 4 0 11 22 19 71 86 85 10 50 80 100 100
100 100 100 100 100 71 100 87 100 53 5 34 2 5 0 0 0 4 0 0 0 0 0 0 0 0 5 24 88 93 37 92 18 10 65 60 9 6 5 5 5 24 100
100 100 100 100 100 56 100 100 88 43 20 51 6 0 0 0 0 0 0 4 0 0 0 0 0 0 0 0 0 40 94 98 87 19 6 70 18 7 4 5 5 6 13